FENGYUN 1C DEB

Satellite information

Favourite Embed

Satellite Type and Status

DEBRISIN ORBIT

Key statistics

Satellite FENGYUN 1C DEB at a glance.

Uptime

9555

Days in orbit

Revolutions

≈ 14.2

Per day

Orbit

SSO

Sun Synchronous Orbit

Inclination

98.6

Latest

Satellite identification and parameters

Extended collection of information and parameters for FENGYUN 1C DEB.

Object identification

Identified? True

Debris? True

Object name: FENGYUN 1C DEB

International designator: 1999-025CSC

Object number (NORAD): 32134

Object ID (CCSDS): 32134

Country: PEOPLES REPUBLIC OF CHINA (PRC)

Current information (Y/N): Y

RCS size: SMALL

Orbital parameters

Period: 101.356 minutes

Inclination: 98.5918 deg

SMA: 7200.988 km

Apoapsis: 1012.004 km

Periapsis: 633.701 km

RAAN: 194.2574 deg

Eccentricy: 0.0262675

Argument of periapsis: 7.1632 deg

Mean anomaly: 64.8117 deg

Mean motion: 14.20740207 rev/day

Mean motion (dot): 0.00002028 rev/day2

B* drag term: 0.00067932 1/REarth

Two-line elements (TLE)

Creation date: July 6, 2025, 6:05 p.m.

Reference frame: TEME

Reference center: EARTH

Epoch: July 5, 2025, 11:34 p.m. UTC

TLE line 0: 0 FENGYUN 1C DEB

TLE line 1: 1 32134U 99025CSC 25186.98261058 .00002028 00000-0 67932-3 0 9991

TLE line 2: 2 32134 98.5918 194.2574 0262675 7.1632 64.8117 14.20740207928782

Live tracking on map

Real-time ground track for satellite FENGYUN 1C DEB.

In-orbit conjunctions

A list of the most updated potential collisions computed for object FENGYUN 1C DEB.

Target Orbit TCA Probability of collision Miss distance Type
COSMOS 2251 DEB LEO 2024-11-12 16:22:00 0.0005385867 126.0 (m) DEBRIS
METEOR 2-8 DEB LEO 2024-08-01 15:44:50 0.0003724079 49.0 (m) DEBRIS
SL-12 R/B(2) LEO 2024-06-19 02:16:38 0.000101872 94.0 (m) ROCKET BODY

Associated space launch

Chinese polar orbiting meteorological satellite

FENGYUN 1C DEB was lifted into orbit during the mission ‘Long March 4B | Feng Yun 1C’, on board a Long March 4B space rocket.

The launch took place on May 10, 1999, 1:33 a.m. from Launch Complex 7.

For more information about the launch, click the button.

Launch to space Long March 4B | Feng Yun 1C
Long March 4B | Feng Yun 1C

Agency: N/A

Status: Launch Successful

Launch date: May 10, 1999, 1:33 a.m. UTC

Rocket: Long March 4B

Launch pad: Launch Complex 7

Location: Taiyuan Satellite Launch Center, People's Republic of China

...

Latest news about this satellite

There are no fresh news available about this satellite. Check back as we update our databases every day.


Newsletter sign-up

Weekly statistics, charts and insights to help you stay on top of the space industry.